[[{"header":{"parameterUnit":"m.s-1","parameterCategory":1,"la1":30.2991,"la2":30.254,"lo1":-89.0895,"lo2":-89.0444,"dy":0.0017,"dx":0.0017,"nx":28,"ny":28,"refTime":"2025-11-07T03:00:00:Z","depth":0,"parameterNumber":2,"parameterNumberName":"U-component_of_WINDS"},"data":[0,0,0,0,0,0,0,0,0,0,0,0,0,0,0,0,0,0,0,0,0,0,0,0,0,0,0,0,0,0,0,0,0,0,0,0,0,0,0,0,0,0,0,0,0,0,0,0,0,0,0,0,0,0,0,0,0,0,-1.5062,-1.5063,0,-1.5133,-1.5134,-1.5135,-1.5161,-1.5161,-1.5161,-1.5161,-1.5233,-1.5235,-1.5237,0,0,0,0,0,0,0,0,0,0,0,0,0,-1.4949,-1.4951,-1.5062,-1.5063,-1.5064,-1.5133,-1.5134,-1.5135,-1.5161,-1.5161,-1.5161,-1.5161,-1.5232,-1.5235,-1.5237,0,0,0,0,0,0,0,0,0,0,0,0,0,-1.5007,-1.4952,-1.5062,-1.5085,-1.5088,-1.5133,-1.5134,-1.5135,-1.5161,-1.5161,-1.5161,-1.516,-1.5231,-1.5235,-1.5238,-1.5264,0,0,-1.5247,-1.5249,0,0,0,0,0,0,0,0,-1.5003,-1.5011,-1.5081,-1.5084,-1.5087,-1.5138,-1.5121,-1.5178,-1.5162,-1.5134,-1.5161,-1.516,-1.5202,-1.5207,-1.5221,-1.5267,-1.527,-1.5248,-1.525,-1.5251,-1.5252,0,0,0,0,0,0,0,-1.4999,-1.5008,-1.509,-1.5082,-1.5086,-1.5092,-1.51,-1.5132,-1.5169,-1.5136,-1.5138,-1.5146,-1.5203,-1.5218,-1.5223,-1.5272,-1.5248,-1.525,-1.5252,-1.5254,-1.5344,-1.5344,0,0,0,0,0,0,-1.4992,-1.5004,-1.5088,-1.5092,-1.5044,-1.5095,-1.5103,-1.5122,-1.5168,-1.5175,-1.5146,-1.5147,-1.5213,-1.5219,-1.5226,-1.526,-1.5251,-1.5254,-1.5256,-1.5343,-1.5344,-1.5344,0,0,0,0,0,0,-1.4989,-1.4999,-1.5085,-1.5049,-1.506,-1.5097,-1.5118,-1.5123,-1.5138,-1.5176,-1.5183,-1.5155,-1.5213,-1.5221,-1.5255,-1.5263,-1.5255,-1.5258,-1.5343,-1.5343,-1.5344,-1.5328,0,0,0,0,0,0,-1.4986,-1.4998,-1.5008,-1.5049,-1.5062,-1.5112,-1.5118,-1.5125,-1.5144,-1.5146,-1.5186,-1.5192,-1.5213,-1.525,-1.5258,-1.5267,-1.5261,-1.5342,-1.5343,-1.5344,-1.5328,-1.5328,-1.5328,0,0,0,0,0,-1.4982,-1.5,-1.5008,-1.5018,-1.5076,-1.5113,-1.512,-1.5144,-1.5145,-1.5155,-1.518,-1.5191,-1.5261,-1.5253,-1.5262,-1.5272,-1.5342,-1.5343,-1.5344,-1.5328,-1.5328,-1.5328,0,0,0,0,0,0,-1.4959,-1.5006,-1.5015,-1.5048,-1.5076,-1.5117,-1.5131,-1.5144,-1.5172,-1.5172,-1.5201,-1.521,-1.524,-1.526,-1.525,-1.5301,-1.5302,-1.5305,-1.5287,-1.5287,-1.5287,-1.5282,-1.5263,0,0,0,0,0,-1.4958,-1.4984,-1.5024,-1.5049,-1.5062,-1.5094,-1.5111,-1.5127,-1.5158,-1.5169,-1.5196,-1.5225,-1.5254,-1.5272,-1.53,-1.5331,-1.5341,-1.5343,-1.5343,-1.5343,-1.5345,-1.5364,-1.5365,-1.5348,-1.5348,-1.5348,0,0,-1.4955,-1.4985,-1.4999,-1.5045,-1.5068,-1.5095,-1.5104,-1.5131,-1.5151,-1.5174,-1.5207,-1.5227,-1.5261,-1.5294,-1.531,-1.5311,-1.5352,-1.5345,-1.5344,-1.5346,-1.5365,-1.5367,-1.5368,-1.5348,-1.5348,-1.5348,0,0,-1.4965,-1.4989,-1.5013,-1.5037,-1.5073,-1.5094,-1.51,-1.5139,-1.5154,-1.5188,-1.5205,-1.5229,-1.5278,-1.5301,-1.532,-1.5339,-1.5351,-1.5348,-1.5348,-1.5366,-1.5367,-1.5368,-1.5375,-1.5377,-1.535,-1.535,-1.535,0,-1.4957,-1.4998,-1.5024,-1.505,-1.507,-1.5092,-1.5116,-1.5138,-1.5181,-1.5194,-1.5196,-1.5257,-1.5282,-1.532,-1.5325,-1.5339,-1.5347,-1.5343,-1.5365,-1.5366,-1.5368,-1.5375,-1.5377,-1.5349,-1.5349,-1.5349,-1.5349,0,-1.4987,-1.5015,-1.5029,-1.5071,-1.5092,-1.5118,-1.5147,-1.5166,-1.5181,-1.5202,-1.5236,-1.5267,-1.5302,-1.5312,-1.5327,-1.5353,-1.5353,-1.5359,-1.5361,-1.5369,-1.5376,-1.5378,-1.5348,-1.5348,-1.5348,-1.5349,0,0,-1.4983,-1.5039,-1.5044,-1.5063,-1.5105,-1.5127,-1.5154,-1.5188,-1.5204,-1.5233,-1.5256,-1.5297,-1.5303,-1.5324,-1.5342,-1.5357,-1.5371,-1.5362,-1.5363,-1.5362,-1.5402,-1.5397,-1.5399,-1.5379,-1.538,-1.538,-1.5399,0,-1.4997,-1.5046,-1.507,-1.5108,-1.5134,-1.5156,-1.5179,-1.5207,-1.5228,-1.5253,-1.5277,-1.5305,-1.5311,-1.5324,-1.5341,-1.5365,-1.5379,-1.5365,-1.5401,-1.5402,-1.5391,-1.5403,-1.5397,-1.5414,-1.5402,-1.5402,-1.5403,0,-1.5021,-1.505,-1.509,-1.513,-1.5142,-1.5162,-1.5196,-1.522,-1.5252,-1.5267,-1.529,-1.5308,-1.5337,-1.5337,-1.5377,-1.5367,-1.5383,-1.5398,-1.5399,-1.5403,-1.5402,-1.5407,-1.5419,-1.5422,-1.5407,-1.5407,-1.5407,0,-1.5013,-1.5063,-1.5094,-1.511,-1.5156,-1.517,-1.519,-1.5223,-1.5242,-1.5272,-1.5285,-1.5318,-1.5335,-1.5361,-1.5386,-1.5384,-1.5425,-1.5427,-1.5437,-1.5436,-1.5444,-1.5443,-1.5459,-1.5455,-1.5455,-1.5455,-1.5455,0,-1.5027,-1.5051,-1.5091,-1.511,-1.5138,-1.5166,-1.5192,-1.5214,-1.5243,-1.5267,-1.5288,-1.5309,-1.5342,-1.5368,-1.5389,-1.5419,-1.5427,-1.544,-1.5445,-1.5438,-1.5436,-1.5448,-1.5447,-1.5456,-1.5456,-1.5456,-1.5455,0,-1.5023,-1.5051,-1.5086,-1.5128,-1.5139,-1.5157,-1.5193,-1.5212,-1.5234,-1.5264,-1.5273,-1.5308,-1.5339,-1.5368,-1.541,-1.5424,-1.5455,-1.5461,-1.5444,-1.5446,-1.5455,-1.5454,-1.5479,-1.5484,-1.5477,-1.5477,-1.5477,0,-1.503,-1.5048,-1.5092,-1.5109,-1.5129,-1.5157,-1.5177,-1.5206,-1.5226,-1.5265,-1.528,-1.5313,-1.5341,-1.5391,-1.542,-1.5453,-1.546,-1.5467,-1.5465,-1.5457,-1.546,-1.5458,-1.546,-1.5466,-1.5466,-1.5466,-1.5466,0,-1.5038,-1.5051,-1.5079,-1.5113,-1.5136,-1.5163,-1.5192,-1.5205,-1.5239,-1.5261,-1.5293,-1.5315,-1.5358,-1.5391,-1.5427,-1.5448,-1.5463,-1.5466,-1.547,-1.5463,-1.5452,-1.5458,-1.5443,-1.5465,-1.5465,-1.5466,-1.5466,-1.5466,-1.504,-1.5057,-1.5091,-1.5122,-1.5146,-1.5172,-1.5192,-1.5217,-1.5245,-1.5283,-1.5298,-1.5332,-1.5365,-1.5414,-1.5435,-1.5462,-1.5465,-1.5471,-1.5472,-1.5473,-1.5472,-1.5448,-1.5469,-1.5469,-1.5469,-1.5469,-1.5469,0,-1.5049,-1.5072,-1.51,-1.5139,-1.5163,-1.5175,-1.5207,-1.5227,-1.5256,-1.5285,-1.5313,-1.5351,-1.5383,-1.5415,-1.5449,-1.5464,-1.5472,-1.5472,-1.5471,-1.5476,-1.5467,-1.546,-1.5466,-1.5466,-1.5466,-1.5466,-1.5466,-1.5466,-1.5057,-1.5087,-1.5105,-1.5148,-1.5171,-1.5204,-1.5221,-1.5245,-1.5269,-1.5311,-1.5338,-1.5358,-1.5389,-1.5426,-1.5456,-1.5465,-1.5476,-1.5475,-1.5485,-1.5476,-1.5476,-1.5476,-1.547,-1.5477,-1.5477,-1.5492,-1.5492,-1.5492]},{"header":{"parameterUnit":"m.s-1","parameterCategory":1,"la1":30.2991,"la2":30.254,"lo1":-89.0895,"lo2":-89.0444,"dy":0.0017,"dx":0.0017,"nx":28,"ny":28,"refTime":"2025-11-07T03:00:00:Z","depth":0,"parameterNumber":3,"parameterNumberName":"V-component_of_WINDS"},"data":[0,0,0,0,0,0,0,0,0,0,0,0,0,0,0,0,0,0,0,0,0,0,0,0,0,0,0,0,0,0,0,0,0,0,0,0,0,0,0,0,0,0,0,0,0,0,0,0,0,0,0,0,0,0,0,0,0,0,3.4288,3.4289,0,3.4412,3.4413,3.4414,3.4425,3.4423,3.4422,3.4421,3.4551,3.4556,3.456,0,0,0,0,0,0,0,0,0,0,0,0,0,3.4066,3.407,3.4287,3.4289,3.4291,3.4411,3.4413,3.4415,3.4425,3.4423,3.4422,3.442,3.455,3.4555,3.4561,0,0,0,0,0,0,0,0,0,0,0,0,0,3.4174,3.4072,3.4287,3.431,3.4313,3.4411,3.4413,3.4415,3.4425,3.4423,3.4421,3.4419,3.4548,3.4555,3.4562,3.4646,0,0,3.4583,3.4586,0,0,0,0,0,0,0,0,3.4167,3.4182,3.4305,3.4309,3.4313,3.4401,3.4383,3.4493,3.4426,3.4383,3.4421,3.4418,3.4503,3.4514,3.4541,3.4652,3.4658,3.4584,3.4588,3.4591,3.4593,0,0,0,0,0,0,0,3.416,3.4176,3.4337,3.4307,3.4312,3.4317,3.433,3.4404,3.4453,3.4386,3.4387,3.4402,3.4505,3.4534,3.4544,3.4659,3.4584,3.459,3.4594,3.4597,3.4853,3.4855,0,0,0,0,0,0,3.4148,3.417,3.4333,3.434,3.4233,3.4322,3.4337,3.4374,3.4452,3.4462,3.4403,3.4402,3.4523,3.4536,3.4549,3.4658,3.4591,3.4598,3.4602,3.485,3.4853,3.4856,0,0,0,0,0,0,3.4143,3.4162,3.4328,3.4256,3.4277,3.4328,3.437,3.4378,3.4408,3.4465,3.4474,3.4425,3.4522,3.4539,3.4623,3.4662,3.4601,3.4607,3.4847,3.4851,3.4855,3.4872,0,0,0,0,0,0,3.4136,3.416,3.419,3.4256,3.4281,3.4397,3.4373,3.4382,3.442,3.4419,3.4487,3.4497,3.4522,3.4612,3.463,3.4671,3.4613,3.4844,3.4849,3.4853,3.4868,3.4876,3.4882,0,0,0,0,0,3.4128,3.419,3.4192,3.4212,3.432,3.4399,3.4414,3.4441,3.4422,3.4456,3.4493,3.4494,3.4654,3.4621,3.4641,3.4684,3.4842,3.4848,3.4853,3.4865,3.4874,3.4882,0,0,0,0,0,0,3.4127,3.4198,3.4202,3.4286,3.4337,3.4401,3.4443,3.4449,3.4506,3.4503,3.4536,3.4551,3.4635,3.4668,3.4629,3.4773,3.4747,3.4757,3.4749,3.4758,3.4765,3.4757,3.4619,0,0,0,0,0,3.4136,3.4193,3.4253,3.4322,3.4347,3.4391,3.4426,3.4443,3.4498,3.4519,3.4563,3.4617,3.468,3.472,3.4781,3.4873,3.4891,3.4913,3.492,3.4926,3.4935,3.4991,3.5003,3.4875,3.4875,3.4875,0,0,3.4156,3.4203,3.4237,3.4323,3.4364,3.4426,3.4409,3.4473,3.452,3.4529,3.4612,3.4646,3.4709,3.4799,3.484,3.4829,3.4974,3.4933,3.4937,3.4943,3.4998,3.5011,3.5021,3.4879,3.4878,3.4877,0,0,3.4225,3.4264,3.4328,3.4371,3.4434,3.4463,3.4479,3.4543,3.4567,3.465,3.4661,3.4718,3.4824,3.487,3.4907,3.5,3.5005,3.5019,3.5057,3.5112,3.5122,3.5131,3.5168,3.5181,3.5027,3.5027,3.5027,0,3.4243,3.4333,3.436,3.4426,3.4466,3.4478,3.4546,3.4586,3.4666,3.4695,3.468,3.4818,3.486,3.4964,3.4987,3.5015,3.5037,3.5011,3.5118,3.5127,3.5136,3.5173,3.5186,3.5028,3.5028,3.5028,3.5028,0,3.4354,3.4418,3.4462,3.454,3.4585,3.4651,3.4691,3.4734,3.4748,3.478,3.4868,3.4921,3.4995,3.502,3.5034,3.5128,3.5119,3.5111,3.5085,3.515,3.5185,3.5198,3.5031,3.503,3.503,3.5029,0,0,3.4423,3.4519,3.4535,3.4573,3.4646,3.4697,3.4766,3.4838,3.4877,3.4932,3.4994,3.5086,3.5081,3.5123,3.5143,3.5191,3.5267,3.5178,3.518,3.5196,3.5379,3.5387,3.5402,3.527,3.5273,3.5275,3.5376,0,3.4503,3.4625,3.4653,3.4759,3.4821,3.4836,3.4897,3.495,3.4983,3.5042,3.5079,3.5146,3.5131,3.5158,3.5206,3.5247,3.5305,3.524,3.5332,3.5335,3.5318,3.542,3.5427,3.5519,3.5389,3.5391,3.5393,0,3.4611,3.4672,3.4783,3.4854,3.4881,3.4934,3.5006,3.5062,3.5124,3.5145,3.5195,3.5212,3.5288,3.5258,3.5366,3.5322,3.5361,3.5388,3.5392,3.5404,3.5369,3.5438,3.5549,3.5564,3.5413,3.5412,3.541,0,3.4656,3.4765,3.4847,3.4879,3.4961,3.5,3.5036,3.5097,3.5141,3.5204,3.5234,3.5305,3.5345,3.5402,3.5438,3.5412,3.5546,3.5517,3.5569,3.5568,3.5598,3.5596,3.572,3.5618,3.5618,3.5617,3.5617,0,3.4744,3.4813,3.4869,3.492,3.5,3.5034,3.5112,3.5149,3.5204,3.5265,3.5282,3.534,3.5383,3.5448,3.5477,3.5566,3.5582,3.5605,3.5612,3.5605,3.5603,3.5633,3.5629,3.5621,3.562,3.562,3.5619,0,3.4807,3.4847,3.4939,3.5011,3.5031,3.5087,3.515,3.5202,3.5236,3.5314,3.5334,3.5389,3.5467,3.5509,3.5605,3.5626,3.5726,3.5728,3.5705,3.5709,3.576,3.5756,3.591,3.5935,3.5813,3.5814,3.5815,0,3.4862,3.4916,3.4994,3.5036,3.5074,3.5141,3.5186,3.5223,3.5271,3.5349,3.5393,3.5472,3.5537,3.5661,3.5711,3.5787,3.5793,3.5842,3.5805,3.5798,3.58,3.5797,3.5805,3.585,3.5851,3.5852,3.5852,0,3.4956,3.4974,3.5038,3.5112,3.5166,3.5225,3.5284,3.5318,3.5365,3.5418,3.5498,3.5549,3.5649,3.5729,3.581,3.585,3.5862,3.5864,3.5881,3.5875,3.5861,3.5874,3.5727,3.586,3.586,3.5859,3.5859,3.5858,3.502,3.507,3.5135,3.5208,3.5256,3.5312,3.5366,3.5409,3.5476,3.556,3.5579,3.5664,3.5731,3.5841,3.5884,3.5954,3.5945,3.5968,3.5974,3.598,3.5985,3.5848,3.5968,3.5968,3.5968,3.5968,3.5968,0,3.5118,3.5162,3.5228,3.5311,3.537,3.5374,3.5441,3.549,3.5565,3.5626,3.5691,3.5785,3.5864,3.5922,3.6003,3.6048,3.6056,3.6069,3.6067,3.6078,3.5986,3.5965,3.6062,3.6062,3.6062,3.6062,3.6062,3.6062,3.5177,3.5265,3.5292,3.5406,3.5449,3.5533,3.5571,3.5625,3.5674,3.5779,3.5844,3.5881,3.5943,3.603,3.6104,3.6119,3.615,3.6163,3.618,3.6093,3.6083,3.6074,3.6055,3.6169,3.6169,3.6266,3.6267,3.6268]}]]